Theta_e
294 293 292 293 292 291 290 290 290 290 291 291 288 288 293 291 282 281 295 297 296 296 303 307 311 314 314 314 315 317 318 318 318 318 317 317 317 317 316 316 315 314 313 313 313 313 314 314 312 310 310 310 310 309 309 309 309 309 310 309 308 307 307 306 306 306 306 305 305 305 305 304 304 304 304 303 304 303 303 302 301 300 300 299 298 297 297
293 293 292 293 291 290 290 291 292 292 292 291 291 292 294 294 292 299 298 298 296 302 304 310 313 315 315 315 316 317 316 316 316 316 316 316 316 315 315 314 314 314 313 313 313 313 313 312 311 311 309 309 309 309 308 309 309 309 309 308 307 306 306 306 305 305 305 305 304 304 303 303 303 303 303 303 303 302 302 301 300 300 299 298 297 296 296
290 294 294 292 292 291 289 290 291 291 292 292 293 293 294 296 295 299 299 296 296 305 311 311 312 313 314 314 314 315 316 316 316 315 315 315 315 315 314 314 313 313 313 313 313 312 312 311 311 310 309 309 309 308 308 308 308 308 308 307 306 306 305 305 305 304 303 303 303 303 302 302 302 303 303 303 303 302 302 300 299 299 298 297 296 295 294
284 293 292 295 293 292 289 289 290 290 291 289 290 288 292 292 291 294 296 293 295 304 310 311 311 312 312 312 313 314 315 316 315 315 315 315 315 314 314 313 313 313 312 312 312 311 310 310 310 309 308 308 307 307 307 307 307 308 307 306 305 305 305 304 304 303 303 303 303 302 302 302 303 303 303 302 302 302 302 301 300 299 297 296 296 295 294
282 292 293 292 291 289 285 283 289 291 292 293 295 296 296 295 295 290 286 289 304 309 310 308 309 310 310 311 313 314 315 316 316 315 315 315 315 314 313 312 312 312 312 312 311 310 310 310 310 309 309 307 307 307 307 307 307 306 305 305 305 304 304 304 303 303 302 302 302 301 302 302 302 302 302 301 301 301 301 301 300 299 297 297 295 295 293
283 291 291 290 283 277 280 292 299 297 293 293 291 291 293 296 296 291 293 299 308 310 309 308 308 309 310 312 314 316 315 315 315 315 315 315 315 314 313 312 312 312 312 311 311 310 310 310 310 310 309 308 307 308 307 307 306 305 305 304 304 304 303 303 303 302 302 301 301 301 301 301 301 301 301 300 300 301 301 301 299 298 297 296 295 295 294
283 286 287 280 275 279 292 298 302 302 298 298 297 295 297 298 297 298 304 307 308 309 310 310 310 311 312 313 314 315 317 316 315 315 315 314 314 313 312 312 312 311 310 310 310 310 310 310 309 309 309 308 308 307 306 305 305 305 304 304 303 302 302 302 302 301 301 301 301 301 301 301 301 300 300 299 300 300 300 299 299 297 296 295 295 295 293
285 284 281 275 276 291 298 298 299 301 300 298 294 291 294 298 296 296 298 307 308 309 310 311 312 312 313 313 313 315 316 317 316 315 314 314 314 312 312 311 310 310 310 309 309 309 310 309 308 309 308 308 307 307 306 306 304 304 303 302 302 302 301 301 301 301 301 300 300 300 300 300 300 299 298 298 298 299 299 298 298 298 298 297 294 293 292
281 282 280 281 290 289 291 292 295 295 292 294 290 285 287 296 297 296 296 305 307 309 311 312 312 312 312 309 309 314 315 315 316 316 315 315 313 313 312 311 310 311 311 310 310 310 309 309 308 307 307 307 305 305 305 305 303 303 302 301 301 301 301 301 301 301 300 300 300 299 299 299 298 298 298 298 298 298 297 297 297 297 297 297 297 295 293
284 281 280 281 280 278 282 293 299 302 302 300 299 293 287 295 299 298 297 303 305 307 309 310 311 311 307 302 305 311 314 316 316 315 314 314 312 311 310 310 310 310 311 311 311 309 308 307 306 305 305 304 304 304 304 304 303 301 301 300 300 300 300 300 300 300 300 300 299 299 298 298 298 298 298 298 298 299 297 297 296 296 296 295 295 294 292
282 281 279 279 277 279 285 291 298 301 301 303 299 289 285 292 298 299 297 300 306 308 308 309 309 305 300 300 305 311 313 314 315 313 313 312 311 310 310 310 309 309 310 310 309 309 308 306 305 305 305 304 304 303 303 302 302 301 301 300 300 300 300 300 300 300 300 299 299 298 298 298 298 298 298 298 299 299 297 296 296 296 296 294 293 293 293
282 280 280 280 282 283 291 297 299 300 301 300 292 283 281 293 303 304 300 300 307 309 310 310 308 304 296 300 305 312 313 313 314 312 311 310 309 309 310 310 310 310 310 309 308 307 306 305 305 305 305 304 303 302 301 302 301 301 301 300 300 300 300 299 299 299 300 299 299 299 298 298 298 298 299 299 298 298 297 296 295 295 295 294 292 292 293
284 284 281 283 285 292 299 299 299 300 303 295 283 280 285 297 303 304 302 299 304 310 310 310 305 307 308 309 311 312 312 312 311 312 311 310 310 309 309 309 308 310 310 309 307 306 306 305 304 304 304 302 301 300 299 299 299 299 299 299 299 299 299 299 299 299 299 299 299 298 298 298 298 299 298 297 297 297 297 297 296 295 294 294 293 293 293
282 281 281 281 284 294 301 300 303 302 296 283 281 292 303 304 305 306 305 303 301 305 310 309 309 309 308 312 312 311 311 310 310 310 310 309 309 310 309 308 309 309 309 308 307 306 306 305 304 303 303 301 300 299 299 297 297 298 299 298 299 298 299 299 299 299 299 299 299 300 299 299 298 297 298 299 298 297 296 296 296 296 295 295 294 293 292
284 282 281 281 278 289 305 301 298 299 286 286 297 302 305 308 306 306 307 307 304 307 308 309 307 307 311 311 310 311 310 309 308 309 309 308 308 307 307 308 309 308 307 306 306 305 305 304 304 303 302 300 300 299 297 296 298 298 298 298 298 298 298 299 299 299 298 298 299 301 299 298 298 297 298 298 298 298 297 296 296 295 295 296 295 294 293
280 281 279 280 285 294 305 299 287 296 298 299 305 306 302 307 307 307 306 308 309 305 309 309 307 310 310 309 309 309 308 309 308 309 309 308 308 307 308 309 308 307 306 306 305 305 305 304 303 303 301 299 298 297 296 297 298 298 298 298 298 298 298 298 298 299 299 299 299 299 298 298 297 297 297 298 298 298 297 297 295 295 295 296 294 294 293
284 282 288 294 299 303 305 307 305 305 308 309 309 307 306 305 305 308 306 308 309 309 306 308 309 310 309 308 309 308 307 307 308 307 307 307 307 307 307 307 306 306 306 305 305 304 304 303 302 301 301 299 297 296 296 297 297 297 298 298 298 297 297 298 298 298 298 298 298 298 298 297 297 297 297 297 297 297 297 296 295 294 293 295 293 292 292
297 299 300 302 303 303 304 305 307 308 307 307 308 307 305 306 308 309 308 310 310 311 310 310 309 309 309 308 308 307 307 307 308 307 307 306 307 307 307 306 306 306 306 305 303 302 301 301 301 301 300 299 297 296 297 298 297 298 298 297 297 297 297 297 297 298 298 298 297 297 297 297 297 296 297 297 296 296 295 295 295 295 292 292 292 292 291
288 283 294 300 301 302 305 305 307 308 309 308 308 307 307 307 309 309 311 309 310 311 311 310 309 308 309 308 308 307 307 307 307 306 306 306 306 306 305 306 305 305 304 302 301 300 299 300 300 300 299 298 297 297 297 298 298 298 298 297 297 296 296 296 296 297 296 296 296 296 296 296 297 297 295 293 294 293 292 292 292 291 292 292 292 291 290
285 286 297 302 303 304 305 303 302 303 306 306 307 308 309 308 308 310 311 311 310 312 311 310 309 309 309 308 307 307 307 306 306 306 306 306 306 306 306 305 304 303 302 301 299 299 298 299 299 299 298 297 297 298 298 298 298 298 298 297 296 296 295 295 295 296 296 293 295 294 294 294 293 293 293 293 291 290 290 291 291 291 291 290 289 290 289
294 299 299 299 298 299 301 306 306 307 307 306 306 309 309 310 309 308 309 310 310 310 311 311 310 309 308 308 307 306 306 306 306 306 306 306 306 305 304 304 303 302 301 300 299 299 298 298 298 298 298 298 298 298 298 299 299 298 297 295 296 295 295 295 295 295 295 294 292 291 291 291 290 290 291 290 289 287 287 288 292 293 292 290 290 288 288
285 289 294 299 289 288 294 303 305 307 309 309 307 306 309 308 308 307 308 308 309 310 311 311 310 309 308 308 308 306 306 305 305 305 306 306 305 304 304 303 303 301 300 299 299 298 298 299 299 298 298 298 299 299 299 299 298 297 296 295 294 294 295 295 295 295 294 293 293 291 290 290 289 289 288 290 289 290 288 289 290 291 290 289 290 288 288
285 295 302 304 299 297 302 304 307 309 309 309 308 309 308 307 306 307 307 308 308 309 311 311 310 308 308 308 307 306 305 305 305 306 306 305 304 303 302 301 301 300 299 299 299 298 299 299 299 299 298 298 298 299 299 299 298 296 295 295 294 294 295 295 295 295 294 293 292 291 290 289 288 287 287 288 288 289 289 289 289 288 288 288 289 291 290
300 303 304 304 302 300 304 307 307 307 310 309 310 310 308 308 308 307 309 309 308 308 308 309 310 309 307 307 307 305 305 305 304 305 305 305 304 303 302 301 300 299 299 299 298 298 299 299 299 298 298 298 298 298 298 298 297 296 296 295 294 294 295 295 294 294 294 293 292 290 289 289 288 288 287 287 288 288 288 288 289 288 288 289 289 290 291
299 305 306 307 305 306 306 307 306 306 309 311 307 306 306 306 307 307 307 308 309 309 308 308 308 308 307 306 306 304 304 304 304 304 303 302 302 302 301 300 300 299 299 300 300 300 299 299 299 298 298 298 299 298 298 297 297 296 296 296 295 294 295 295 294 294 294 293 292 291 290 288 288 287 287 286 285 285 288 289 289 289 289 289 289 289 289
306 305 306 307 307 306 306 306 306 306 307 309 307 306 307 307 307 307 307 307 307 309 309 308 307 307 307 306 305 304 303 303 301 301 302 302 301 301 301 300 300 300 300 300 300 299 299 298 298 298 298 298 298 298 298 297 297 296 296 295 295 295 295 294 294 294 294 293 292 291 290 289 289 288 287 287 287 286 286 286 288 289 290 289 289 289 289
306 308 307 303 303 303 305 304 301 305 308 308 306 306 307 308 307 307 307 308 309 310 309 307 307 307 306 305 303 303 302 300 300 301 302 301 300 301 301 301 301 300 300 299 299 298 297 298 298 298 298 298 298 298 298 297 297 296 296 295 295 292 291 292 294 294 294 293 292 291 290 290 289 288 288 288 288 287 287 286 286 286 286 288 288 289 287
306 306 306 301 299 301 303 306 307 306 307 306 305 305 306 307 306 305 305 306 307 308 308 308 307 306 304 305 304 302 301 299 300 301 300 300 301 302 302 301 301 300 300 299 299 298 298 298 298 299 299 298 298 298 298 297 297 296 296 296 296 295 294 294 294 293 293 293 292 292 291 291 291 290 290 289 289 288 288 288 287 287 287 287 286 289 289
304 304 305 305 304 303 305 305 306 306 306 306 306 305 306 305 305 304 304 305 307 306 306 306 307 306 304 303 303 302 300 300 300 300 300 301 302 302 302 301 301 300 299 298 298 298 298 298 298 297 298 298 298 298 298 298 297 296 296 295 295 295 294 295 295 294 294 294 293 293 290 290 291 291 291 291 290 290 290 289 288 289 288 287 288 289 288
302 303 305 307 306 306 304 305 304 304 305 304 304 304 305 304 303 303 304 304 305 306 305 305 305 305 305 303 303 301 300 300 301 301 301 301 302 303 302 301 301 300 300 298 298 298 299 298 298 297 298 298 298 298 298 297 297 297 296 296 296 295 294 296 296 295 295 295 294 290 291 293 293 293 292 292 292 291 291 289 289 288 288 289 289 287 287
302 303 303 303 305 304 303 303 303 303 303 304 303 303 303 303 302 302 302 303 304 303 303 304 303 303 304 303 303 302 301 301 302 301 302 302 302 302 302 301 299 297 297 297 298 298 298 298 298 297 298 298 298 298 298 297 297 297 296 296 296 292 291 291 292 297 295 294 293 293 293 293 293 293 291 291 291 291 291 290 289 289 289 289 288 288 288
302 303 303 301 301 301 301 302 302 302 302 302 302 301 302 302 301 302 302 302 302 303 303 303 303 303 303 303 302 301 301 301 301 301 302 302 301 301 301 301 300 296 298 298 297 297 298 298 298 298 298 298 298 298 298 297 297 297 296 293 295 295 292 291 294 294 293 292 292 293 291 293 293 292 290 290 289 288 288 287 287 288 290 290 289 290 289
299 297 296 298 298 299 299 300 300 300 301 301 301 302 303 303 303 303 303 302 302 302 303 302 302 303 303 302 302 301 301 301 301 301 301 300 300 300 300 301 300 299 299 298 299 299 299 299 299 300 299 299 298 298 298 298 297 296 296 296 295 294 291 291 292 294 293 293 293 293 293 291 291 292 291 289 290 288 288 286 285 286 287 289 291 291 291
299 297 297 298 298 297 297 298 299 299 300 301 301 302 302 303 302 302 302 302 302 302 302 302 302 302 303 302 301 300 300 299 298 298 298 297 297 299 300 299 299 299 299 299 299 299 299 300 301 301 300 299 299 298 298 298 297 296 296 295 295 294 294 293 293 294 293 293 293 293 292 290 292 293 290 289 290 289 288 287 287 287 287 288 287 289 291
301 300 300 300 300 300 300 299 299 299 299 300 301 302 302 302 302 301 301 302 301 301 301 302 302 302 302 301 300 300 299 297 294 293 293 293 296 298 300 299 299 299 299 299 300 300 301 301 300 299 299 300 300 299 298 297 296 296 295 296 295 295 295 294 295 295 294 293 292 293 291 291 290 291 291 292 290 289 287 287 287 288 287 287 287 287 290
301 300 300 300 300 300 300 299 300 300 300 300 301 301 301 301 301 301 300 300 301 301 301 301 301 301 300 300 298 296 293 291 291 291 291 292 295 298 298 298 298 298 297 298 300 301 301 301 294 293 300 299 299 299 298 298 297 297 296 297 295 295 294 294 295 294 294 293 292 292 292 290 290 289 291 292 291 291 290 289 288 287 286 286 285 286 286
302 301 299 300 300 301 301 301 301 301 301 301 301 301 301 301 301 301 301 301 301 302 301 301 300 299 299 298 297 295 293 293 293 291 292 294 298 298 298 297 297 296 296 296 298 300 300 298 290 291 298 300 300 300 298 292 297 296 297 297 296 295 294 294 295 294 294 292 292 292 290 289 291 290 290 292 291 290 291 289 288 288 286 287 285 286 285
301 301 301 301 302 302 302 303 303 302 302 301 300 300 299 300 300 300 300 301 301 301 301 300 299 297 296 295 295 294 294 293 293 294 295 297 298 297 297 296 296 296 296 296 300 300 300 295 291 296 301 301 300 300 297 291 292 297 297 297 296 294 293 294 293 293 293 293 290 291 291 290 290 292 290 290 290 289 288 287 288 287 288 287 287 286 287
300 301 301 302 303 302 302 303 303 302 301 300 299 299 299 299 299 300 300 300 301 300 299 298 297 296 296 295 294 294 294 295 296 297 297 297 297 296 295 297 297 298 298 301 302 301 297 294 297 300 300 299 300 300 293 289 292 297 296 296 296 293 292 293 293 292 292 294 291 292 293 291 291 291 290 290 290 289 288 288 287 287 288 288 287 286 286
301 301 301 301 301 302 302 302 302 302 302 302 300 299 300 300 300 299 299 299 300 298 299 298 297 295 295 295 294 294 295 297 297 298 297 297 296 296 296 297 299 300 299 295 301 300 295 290 297 299 300 301 301 300 296 291 291 295 296 295 295 293 292 293 293 291 291 291 290 289 291 291 291 290 290 290 290 290 289 289 288 287 287 287 287 288 287
302 301 300 300 300 301 301 300 300 301 301 301 301 300 300 300 299 298 298 298 299 299 299 298 297 296 295 295 295 296 297 297 298 298 298 297 296 295 294 294 298 300 300 301 300 298 293 293 299 299 300 301 301 297 296 291 292 294 295 295 294 293 292 292 292 291 290 290 290 289 290 291 290 291 290 290 290 290 289 289 289 288 288 288 288 287 287
301 301 301 301 301 301 301 301 301 300 301 301 300 300 300 300 299 298 298 299 299 298 298 297 294 296 296 296 296 296 297 298 299 298 298 297 295 294 294 296 300 300 293 293 291 292 295 298 297 294 298 299 298 294 293 293 294 294 294 295 294 292 293 292 292 293 292 292 291 292 291 290 291 291 290 290 288 288 289 289 288 288 289 289 288 289 288
301 301 301 301 301 301 302 301 300 299 299 300 301 300 300 300 300 299 299 298 298 297 297 296 294 293 295 296 296 297 297 298 298 298 298 298 299 299 297 298 301 300 290 294 296 296 297 298 298 297 294 296 296 293 290 295 295 295 295 294 293 294 294 294 294 294 293 293 292 293 293 291 290 290 289 289 289 288 288 288 287 288 287 288 290 289 289
301 301 300 300 300 301 300 299 301 301 299 298 299 299 300 300 300 299 298 298 297 296 295 295 295 296 296 296 297 296 296 297 297 297 297 297 298 300 301 300 300 295 290 293 295 296 296 298 298 297 292 291 291 290 294 295 295 295 295 294 294 294 293 294 294 293 294 293 291 292 293 291 291 290 290 289 288 289 288 288 289 290 289 289 289 289 288
301 301 301 300 300 299 300 300 300 300 301 301 299 298 298 298 299 299 298 297 296 296 295 295 295 295 296 296 297 297 298 298 298 297 295 293 293 296 299 295 298 294 292 291 295 296 297 298 296 291 291 289 289 289 294 295 295 295 294 294 294 293 293 293 293 294 293 293 293 292 292 292 292 291 290 289 289 289 290 290 290 290 289 290 289 289 289
300 301 301 296 300 300 301 301 301 300 300 299 299 298 298 298 298 298 298 297 296 296 297 297 296 296 297 297 297 298 298 298 298 299 298 297 295 296 298 294 295 291 290 291 295 297 298 293 292 291 289 288 288 291 295 295 293 293 294 293 293 292 292 292 292 293 293 294 291 291 292 292 292 292 292 291 290 290 289 288 288 290 289 289 288 288 287
300 300 301 302 301 300 300 300 300 300 299 298 296 295 296 297 297 298 298 298 297 297 297 297 297 297 298 298 297 297 296 296 296 297 297 297 296 294 291 291 289 289 290 295 295 297 296 295 291 289 288 287 288 294 295 294 294 293 292 293 291 292 292 292 293 293 292 291 291 291 290 290 291 292 290 290 290 289 288 288 287 288 288 288 288 289 288
300 300 301 301 301 302 302 301 300 298 297 296 297 297 297 297 298 298 298 297 296 296 296 297 297 298 298 298 298 299 298 296 293 294 297 297 297 296 296 295 293 290 291 291 291 292 291 291 291 289 288 287 289 294 295 293 293 292 293 293 293 293 292 292 293 293 292 292 291 292 292 291 290 290 290 290 290 288 288 288 288 287 288 288 291 289 289
300 300 300 301 301 302 301 300 298 297 298 299 298 297 298 297 298 298 297 297 296 295 294 296 297 298 298 297 298 299 298 298 297 294 297 297 297 297 298 292 289 289 291 294 296 295 291 290 290 289 287 287 292 294 294 295 294 292 292 293 293 294 293 293 293 293 293 293 292 291 291 291 291 291 291 289 289 287 287 288 288 288 288 287 287 287 288
299 299 299 300 300 300 300 298 297 298 298 299 299 299 298 297 296 296 295 296 296 294 296 295 295 296 296 296 298 298 299 298 297 298 298 298 298 298 296 295 294 290 290 294 295 294 291 289 288 287 288 290 293 294 295 294 294 293 294 292 291 291 291 290 290 291 293 292 292 290 290 290 290 290 290 289 289 288 288 290 290 288 288 288 288 288 287
299 298 298 297 298 299 300 300 299 299 298 298 299 299 298 298 297 295 295 295 296 295 296 296 296 296 295 295 295 297 298 297 296 294 297 297 297 294 293 294 293 290 291 291 294 294 292 290 289 288 288 291 293 293 294 294 294 293 292 291 292 290 290 289 288 289 291 289 290 290 289 289 290 289 289 289 288 288 288 289 287 287 288 288 289 289 289
300 300 299 299 300 299 301 301 300 299 298 297 297 297 297 298 297 296 295 293 296 297 296 295 294 296 297 297 297 298 298 298 296 296 295 297 296 296 294 291 293 291 291 292 294 293 290 290 289 288 288 291 291 291 290 290 292 292 292 291 291 290 289 288 288 288 289 289 289 289 288 288 288 289 288 288 288 287 287 287 287 288 288 287 287 288 288
Wind_Speed
5 6 8 12 10 6 7 7 8 11 7 5 4 4 3 4 5 2 4 9 9 4 7 9 12 16 17 17 17 17 18 15 14 15 16 16 16 16 17 17 16 16 15 14 14 13 12 12 12 11 10 10 10 10 9 8 8 9 8 8 8 7 8 8 7 6 6 6 6 7 8 8 8 8 8 8 8 8 9 9 9 10 9 8 7 6 6
7 7 10 14 13 10 5 5 2 5 6 7 7 4 3 0 2 12 7 8 7 4 3 10 11 12 15 12 11 11 13 16 17 17 17 17 17 17 18 16 13 15 16 15 14 13 12 13 12 10 9 11 11 11 11 10 10 10 9 8 8 9 9 7 7 6 7 6 7 7 8 8 7 7 7 8 8 9 10 10 9 9 9 8 7 6 6
6 7 3 10 15 10 5 4 5 6 5 5 2 1 1 7 2 6 11 10 7 1 10 10 9 11 12 13 13 13 14 15 16 16 16 16 16 15 16 18 17 14 14 15 16 14 14 14 14 13 13 13 12 12 10 10 10 9 9 9 9 9 9 7 7 7 7 8 8 8 7 7 7 8 8 7 8 8 8 9 10 9 8 8 7 6 6
4 3 2 3 5 10 9 6 8 7 4 2 1 1 2 2 3 3 7 8 7 2 4 12 12 15 17 16 15 13 12 14 16 16 16 16 16 16 16 15 17 18 16 16 16 15 16 15 14 12 13 13 12 11 10 9 8 9 9 9 10 9 8 7 7 8 8 8 8 8 7 8 9 8 8 8 8 7 8 9 9 9 9 8 7 6 6
4 2 10 6 6 8 6 4 3 8 3 2 0 1 3 4 4 5 5 8 11 14 11 14 8 11 12 14 15 14 14 15 15 16 16 17 16 17 18 17 17 18 18 17 14 15 16 15 13 11 11 13 12 11 11 8 9 10 10 10 10 9 8 8 8 8 9 9 8 8 8 8 7 8 8 8 8 8 8 8 8 8 7 7 6 6 6
2 3 6 2 4 4 3 2 2 3 1 3 3 2 2 3 4 2 6 7 12 15 13 18 14 15 16 15 12 15 17 15 13 13 13 13 14 15 16 18 19 18 16 13 16 18 17 15 15 11 9 10 10 10 10 9 11 11 11 10 9 9 8 8 9 9 8 9 9 8 8 8 9 9 8 8 7 6 7 8 9 8 8 8 6 5 5
2 3 6 4 0 2 3 1 1 2 5 8 2 3 3 3 4 8 13 14 13 15 12 16 14 10 9 9 13 12 14 17 16 17 15 14 15 17 17 17 15 15 17 18 14 13 13 12 11 13 13 12 11 9 9 11 11 11 11 10 9 8 9 9 9 8 9 9 9 9 9 10 9 9 8 8 8 6 7 8 8 9 8 7 6 5 4
3 3 2 2 2 2 3 4 2 3 4 3 5 4 4 3 6 7 12 12 15 11 10 10 12 14 12 9 7 10 11 12 15 16 16 17 18 18 16 17 15 15 17 21 20 15 10 12 13 12 11 11 12 11 9 9 9 10 10 10 10 9 9 9 9 9 10 9 9 9 10 9 8 8 7 8 8 7 7 7 7 7 6 7 7 6 4
1 1 4 3 0 3 5 4 4 3 2 1 3 0 4 3 2 7 10 13 10 10 13 15 14 14 12 9 7 8 12 11 12 17 17 17 15 15 14 15 16 16 16 15 16 15 14 14 13 11 11 12 11 12 13 10 9 9 9 10 10 9 9 9 10 9 9 10 10 9 9 9 8 8 8 8 8 7 8 8 8 8 7 6 5 5 4
2 2 2 1 1 0 4 4 5 0 4 2 1 2 5 5 4 0 9 16 13 11 13 15 16 15 12 9 8 10 12 13 14 11 11 12 13 14 15 12 12 13 14 14 12 13 16 13 8 10 12 12 14 13 11 11 10 6 8 8 9 10 9 9 9 9 9 9 9 9 8 9 8 8 7 7 8 8 8 8 8 7 7 6 4 4 4
2 1 1 1 2 4 5 6 6 2 1 0 3 2 5 5 5 5 1 11 14 16 15 13 14 10 9 10 11 11 13 11 14 15 15 15 15 15 17 18 15 13 13 14 14 13 13 12 11 13 15 16 14 13 11 11 13 10 6 8 9 9 9 9 9 8 8 9 9 8 8 7 8 9 8 8 8 8 8 8 8 7 7 6 5 4 4
0 2 0 1 0 1 2 3 3 3 3 5 7 3 5 3 7 6 4 4 14 16 17 17 12 13 9 9 10 12 13 14 15 17 17 17 16 15 15 15 17 15 14 13 13 14 14 12 12 15 14 13 12 11 9 10 12 13 9 7 7 7 8 8 8 8 8 9 8 8 8 7 7 7 6 7 8 9 8 8 7 7 6 6 5 4 3
1 2 2 2 2 4 3 2 2 3 4 5 5 7 3 4 5 5 4 5 6 11 16 14 11 11 14 15 12 13 14 14 13 13 15 16 17 16 15 15 15 14 14 15 16 15 13 14 13 13 13 13 12 11 10 10 12 12 9 7 8 9 9 9 9 9 8 9 9 7 6 7 7 6 7 7 8 8 8 7 7 7 7 6 5 4 3
1 3 2 3 1 3 1 1 5 3 5 0 2 4 3 2 5 6 5 3 5 10 12 10 13 12 5 14 17 18 17 16 15 16 16 15 14 14 15 16 14 13 13 12 13 13 13 14 14 13 14 14 12 12 11 10 9 10 11 10 10 10 10 10 10 9 9 8 7 7 6 7 7 7 5 6 7 8 7 7 8 8 6 6 6 4 3
1 1 1 0 0 2 0 1 4 3 4 3 4 3 3 2 4 6 7 6 3 12 14 12 5 5 12 17 18 18 17 18 18 18 19 19 19 17 17 16 15 16 14 15 15 15 13 13 12 12 14 13 11 10 11 10 10 11 11 10 10 10 10 10 9 9 8 8 7 6 6 6 7 7 7 8 7 8 7 6 6 6 6 6 6 6 4
2 1 1 1 2 2 1 3 2 1 3 4 1 2 4 6 6 6 6 6 4 3 13 14 6 13 13 12 13 13 13 15 15 15 16 16 16 15 14 16 16 16 16 15 15 15 14 13 13 13 13 12 12 13 12 10 11 11 11 11 10 10 8 8 8 8 8 7 6 6 7 7 6 7 7 7 7 7 7 7 7 7 6 6 6 7 6
1 1 1 3 2 1 4 4 3 3 1 2 4 3 2 4 5 4 4 6 7 3 6 8 16 13 16 18 18 18 16 17 18 19 18 19 18 18 17 16 16 15 16 18 16 14 13 15 12 11 11 14 15 15 11 11 12 12 12 10 9 9 9 9 9 8 7 7 7 6 6 7 7 8 7 7 7 6 6 5 5 6 5 5 6 7 7
2 1 1 2 5 5 6 4 3 4 4 4 4 4 4 3 1 2 4 5 5 7 10 15 11 15 15 16 12 13 15 16 15 15 15 14 15 16 15 15 16 15 15 15 15 16 15 14 12 12 12 14 16 13 11 11 12 12 11 10 10 10 10 9 9 9 9 7 7 7 6 7 7 7 8 7 7 6 6 6 6 6 5 6 7 7 7
2 1 4 6 3 2 4 3 3 3 1 2 2 3 1 2 4 4 4 5 6 10 11 11 13 14 15 16 14 14 14 16 17 18 18 17 18 19 18 17 15 15 16 15 15 15 14 12 12 12 13 12 13 13 12 12 12 11 10 11 11 10 11 9 8 9 9 8 7 7 6 7 7 6 5 4 5 3 4 6 5 5 5 5 6 7 7
2 3 2 1 0 2 1 2 3 1 1 3 2 1 2 3 3 4 4 5 5 9 11 14 14 11 11 16 15 14 14 15 15 16 17 18 16 16 17 16 15 15 15 15 15 14 14 12 12 12 12 12 13 13 12 12 10 11 12 12 12 11 10 9 9 9 9 11 10 7 4 4 7 7 6 6 7 6 4 5 8 7 7 6 6 7 7
2 5 3 3 3 2 5 5 4 2 4 3 4 4 2 0 2 4 4 5 5 6 11 12 15 15 12 13 16 15 13 13 14 15 16 17 17 17 18 17 17 16 15 15 16 15 14 12 12 12 12 13 14 15 13 11 13 13 12 12 11 10 9 9 9 9 8 6 6 7 7 7 6 4 7 8 8 5 2 0 6 8 7 6 5 4 7
2 0 3 2 2 2 2 1 1 2 3 4 3 3 1 2 1 3 2 5 2 6 9 13 15 16 13 12 14 15 14 14 14 14 15 16 17 16 15 14 15 15 15 17 17 16 13 13 13 13 13 13 14 13 12 12 14 13 12 12 10 10 10 9 9 8 7 8 8 8 8 8 9 8 10 9 5 8 5 6 9 8 8 5 6 7 7
2 6 7 5 6 3 0 2 2 0 2 3 3 1 2 3 2 5 3 6 8 8 8 12 14 13 14 12 12 13 11 11 12 14 16 16 16 16 16 16 16 16 16 16 15 15 14 14 14 14 14 14 13 12 13 13 13 13 12 11 10 10 10 9 10 8 8 8 8 8 8 9 9 9 7 9 11 10 9 8 10 12 12 9 7 7 7
1 3 3 3 1 2 1 1 1 1 2 1 1 2 2 1 2 3 6 7 11 7 7 5 8 13 11 12 13 13 12 12 13 14 13 15 14 14 14 14 15 16 16 17 16 15 14 14 14 14 14 13 12 13 13 13 12 12 12 11 11 10 9 9 10 8 8 9 8 8 7 8 9 9 8 7 6 6 6 8 8 9 9 8 9 8 8
1 1 0 1 1 2 0 1 3 4 2 2 2 4 4 5 3 6 5 6 7 13 10 9 6 10 13 10 11 12 13 12 13 15 15 14 15 15 14 15 16 17 16 14 13 13 14 15 15 14 14 13 13 13 13 13 12 12 11 11 10 10 10 11 8 9 10 9 8 9 8 8 8 8 8 8 8 4 2 5 6 6 4 5 6 7 6
1 1 1 1 0 0 0 2 1 1 2 2 1 2 4 4 4 8 6 5 7 9 12 11 10 7 11 13 10 10 10 11 12 13 13 13 14 14 16 16 16 13 13 13 13 13 14 15 15 13 13 12 12 13 13 12 12 11 11 10 10 11 11 10 8 9 9 9 9 8 8 8 8 8 7 8 8 7 6 3 1 2 2 3 3 2 3
3 2 1 2 2 3 1 3 1 3 1 3 4 4 3 6 7 7 7 7 7 10 11 10 11 12 9 10 12 12 14 10 10 12 13 14 14 13 12 12 13 13 13 13 11 12 13 11 11 12 13 13 12 12 12 12 11 10 10 10 10 12 14 9 8 9 9 9 9 8 8 8 8 8 7 7 7 8 7 7 6 6 6 5 5 6 5
3 5 3 1 2 2 0 0 1 3 5 5 4 4 4 5 6 7 8 8 7 7 9 11 12 12 12 10 12 10 9 12 13 11 11 12 11 10 11 12 13 12 11 11 11 10 10 10 10 7 8 9 11 12 12 11 11 10 11 11 11 10 8 9 9 9 9 9 8 8 8 8 8 8 7 7 7 7 6 6 7 7 5 6 5 7 8
2 2 4 5 0 1 3 3 3 5 6 5 4 3 4 7 5 6 6 6 8 7 7 7 8 12 14 11 11 12 12 11 11 12 10 10 10 9 9 11 10 11 11 11 10 11 12 11 12 11 10 10 11 12 11 11 10 10 11 11 11 9 7 7 9 9 8 9 8 9 9 9 8 7 7 8 8 7 6 7 7 6 6 5 3 2 2
3 4 4 4 6 0 2 0 3 4 4 4 4 4 6 7 7 6 8 8 7 6 4 6 7 8 10 10 10 12 13 12 12 10 10 10 9 8 11 12 12 11 10 10 12 12 11 13 13 12 11 11 12 11 11 9 9 10 11 11 11 9 7 7 9 10 9 9 10 12 10 9 8 8 8 8 8 8 8 8 8 7 6 6 6 7 7
1 0 3 5 4 0 2 4 4 4 4 5 5 5 5 6 6 7 7 8 8 7 5 6 8 9 9 10 9 7 7 8 8 9 9 10 9 10 12 15 16 14 13 13 12 9 11 12 10 11 11 12 12 11 11 9 9 10 10 10 9 10 11 12 10 9 8 9 10 9 8 9 9 10 10 9 9 8 8 7 7 7 6 6 7 7 8
1 3 8 7 6 6 6 6 6 5 5 4 5 4 4 6 6 6 5 7 8 7 7 7 8 8 7 8 9 9 8 7 8 8 9 7 7 10 11 11 11 11 13 15 15 16 13 8 7 8 10 11 12 11 10 10 10 11 10 11 10 7 9 12 8 8 8 9 9 8 8 8 8 9 10 10 9 9 9 8 9 9 8 7 7 9 7
7 6 6 6 7 7 5 5 6 7 6 6 5 5 5 5 6 7 8 7 7 7 7 6 5 7 8 9 9 9 9 8 8 9 8 7 9 11 11 10 10 11 12 12 10 9 10 10 10 9 10 10 9 9 8 8 9 10 10 9 8 7 6 8 9 8 7 8 7 7 7 7 8 7 7 7 6 7 7 6 6 7 9 9 9 8 7
7 5 4 4 4 5 4 4 4 5 5 5 5 6 6 5 6 7 8 7 8 7 7 6 6 7 8 9 9 10 10 11 9 8 8 9 9 10 9 8 10 12 13 9 7 6 6 9 9 8 8 8 8 7 6 7 9 9 9 9 8 7 7 7 10 8 7 7 7 8 7 5 7 7 6 7 7 5 7 6 6 7 5 7 7 7 10
6 5 6 5 5 6 6 6 6 7 6 6 6 7 7 6 6 6 8 8 6 5 5 7 6 6 8 9 10 9 10 11 10 10 9 8 8 8 9 11 11 10 8 5 6 6 7 7 8 8 7 8 7 5 5 7 8 9 8 8 7 5 6 8 9 8 8 7 7 6 6 6 5 5 6 7 6 6 5 6 8 8 7 6 3 3 8
6 7 6 6 5 5 5 5 5 7 6 6 6 7 8 7 7 8 9 7 5 6 6 7 7 6 7 9 9 9 9 8 8 9 9 9 9 10 11 11 10 9 8 7 6 6 8 9 7 6 8 7 6 5 6 6 7 8 8 7 6 5 6 7 8 8 7 7 7 7 7 7 7 6 6 7 7 6 6 6 6 6 6 5 5 5 5
7 6 4 4 5 5 6 7 6 6 6 5 5 7 8 7 7 6 6 5 5 6 7 7 7 7 6 5 6 6 7 9 8 8 7 9 11 12 12 12 11 10 8 6 3 7 9 7 6 11 11 8 4 4 4 9 6 7 7 7 6 6 5 6 7 8 8 7 8 7 8 6 6 6 7 7 7 7 7 7 6 6 6 6 5 6 6
7 6 5 4 4 5 5 5 5 5 6 7 7 7 7 6 5 6 6 5 6 6 6 6 7 7 7 7 7 8 8 7 10 10 10 11 12 14 13 12 9 9 8 7 7 10 8 8 12 11 8 8 8 8 7 9 11 9 7 7 6 5 5 6 5 7 8 7 9 8 7 7 6 5 5 6 6 6 6 7 7 7 6 6 7 7 7
6 6 5 4 5 4 4 5 4 4 6 7 6 6 6 7 6 5 5 5 5 7 8 8 8 9 9 9 8 7 8 8 9 10 11 10 10 12 10 9 8 8 9 6 6 6 6 6 7 10 9 7 7 6 7 9 12 9 8 7 6 5 5 5 6 4 6 8 8 8 7 7 7 7 5 5 5 4 4 5 6 7 8 8 7 6 7
6 4 3 3 5 6 6 6 5 5 5 6 6 5 5 5 5 5 5 5 4 7 9 9 9 8 8 9 9 8 7 7 8 10 10 10 10 11 9 7 7 8 8 8 5 4 6 6 5 6 7 6 7 6 6 7 8 7 8 7 7 8 7 6 6 5 4 5 7 7 8 8 7 7 6 7 6 6 6 6 5 5 6 7 8 8 8
5 3 3 4 5 5 6 5 5 4 4 5 5 4 4 5 5 5 5 5 5 5 7 7 9 8 9 9 9 9 7 7 8 10 11 12 11 10 10 9 8 7 6 6 6 7 9 7 4 4 6 6 7 6 6 8 6 5 7 8 8 8 7 7 6 6 5 5 5 5 7 8 8 8 8 7 8 7 7 7 7 8 8 7 6 5 6
5 4 4 4 5 5 6 6 6 5 4 5 6 6 5 5 4 5 4 5 5 5 5 4 7 10 9 9 9 9 8 8 9 9 10 12 12 10 10 9 8 5 7 7 6 9 10 9 6 5 4 5 6 10 6 6 5 3 4 8 9 8 8 8 8 7 7 7 6 7 6 7 8 8 8 8 8 8 8 8 8 8 8 8 8 7 7
4 4 4 3 4 5 6 6 6 6 5 5 5 5 5 5 5 5 5 5 6 6 6 7 9 9 9 8 9 9 8 8 9 8 6 4 6 9 12 9 8 7 10 6 6 5 6 5 4 3 3 3 3 6 9 4 5 4 2 2 8 10 9 8 9 9 8 7 8 8 7 7 8 8 8 8 8 7 6 6 6 7 7 8 8 8 8
4 4 4 3 4 4 4 4 6 7 7 5 5 4 4 4 5 5 5 5 6 7 8 7 7 8 10 10 9 8 7 7 8 7 8 7 6 3 6 9 7 8 11 6 6 4 3 4 4 6 3 4 8 13 11 6 5 5 5 2 2 5 7 8 8 8 9 9 7 7 8 8 7 7 7 8 7 7 6 7 7 7 6 6 6 6 6
3 3 4 4 3 3 4 5 5 6 7 7 6 5 4 3 3 5 6 7 6 6 6 7 8 7 8 9 9 8 7 8 9 9 9 7 7 5 5 8 10 8 9 9 6 6 4 5 8 11 7 8 13 16 10 7 6 7 4 4 2 2 5 5 6 7 6 7 8 8 8 8 7 8 8 8 8 8 8 8 8 8 8 8 8 7 8
4 3 4 5 4 5 6 6 6 5 6 7 7 5 4 4 5 6 5 6 7 6 6 6 7 8 8 8 8 8 7 6 6 6 7 10 10 8 7 8 7 7 10 10 6 7 6 9 12 11 7 10 12 11 8 7 6 7 7 5 4 3 3 5 7 7 7 7 7 7 7 7 7 8 8 8 8 8 8 8 8 8 7 7 7 7 6
4 3 3 4 4 5 6 6 6 6 6 5 6 5 5 4 4 5 5 5 6 5 6 6 7 6 6 7 8 8 8 7 4 4 5 5 7 8 9 11 10 11 10 8 8 8 7 6 6 9 9 11 11 8 7 6 7 7 7 6 5 4 4 4 4 4 5 4 4 4 5 5 5 6 6 7 7 8 8 7 6 6 7 6 5 5 6
4 4 4 3 4 5 5 5 6 6 4 5 5 6 5 4 5 5 5 4 5 6 6 6 6 6 6 6 6 6 7 8 8 4 3 5 5 6 8 8 10 12 12 9 10 9 12 10 13 13 11 10 9 8 8 6 5 5 6 5 4 5 6 5 4 2 3 3 2 2 2 2 3 3 3 3 4 5 5 5 5 6 5 6 7 7 5
6 5 4 3 3 2 3 3 4 7 6 7 7 6 4 5 6 7 6 5 5 5 5 5 5 6 6 7 7 6 6 7 8 8 6 6 7 6 7 9 12 11 9 7 7 8 13 17 16 14 12 10 8 7 6 6 6 7 6 7 7 7 7 7 6 5 4 4 4 4 4 5 5 5 5 5 4 5 5 5 5 5 6 6 6 6 5
5 5 5 4 3 3 3 4 4 7 7 7 7 7 7 6 5 5 7 6 6 6 5 5 5 5 6 5 6 6 7 6 4 7 7 6 7 8 8 8 8 9 9 7 6 6 7 11 11 11 10 8 8 7 6 5 5 5 5 6 7 6 6 6 7 7 7 6 7 7 7 7 8 8 8 7 7 6 7 8 7 7 9 7 8 7 5
7 6 5 6 6 5 5 4 5 7 6 5 6 9 8 6 6 5 6 7 7 7 6 6 5 6 5 5 5 6 6 6 6 8 9 8 9 9 9 8 9 8 8 8 7 7 7 7 7 8 10 9 8 8 7 6 6 4 4 3 3 3 1 1 2 4 5 6 6 5 5 4 4 4 4 5 6 5 6 7 6 5 4 6 7 7 5
6 6 7 6 6 5 2 6 8 6 6 6 4 3 3 7 7 6 5 6 6 7 7 6 6 6 6 6 6 6 5 7 6 6 7 8 8 7 8 9 7 8 8 7 7 6 6 8 10 11 9 7 5 4 5 5 4 4 4 4 4 3 3 3 3 4 4 5 5 5 5 4 3 3 3 3 3 4 4 4 5 5 3 2 4 7 9
Wind_Direction
240 188 184 162 183 204 208 218 193 214 237 256 176 191 220 106 142 190 186 122 127 135 131 126 130 134 140 148 151 155 152 146 142 142 142 147 148 146 144 146 145 142 142 139 135 136 138 138 135 131 125 126 129 130 133 138 135 135 136 133 130 124 120 121 125 124 118 113 110 106 103 98 96 93 92 90 88 90 92 92 87 83 80 77 77 72 62
273 235 199 172 175 191 213 200 198 202 238 244 221 200 216 93 165 142 157 132 123 139 129 128 137 133 132 131 129 134 142 147 149 146 148 150 150 150 147 145 143 142 142 141 140 144 144 140 130 122 123 134 138 141 146 147 142 143 141 139 129 125 124 125 126 123 117 112 108 106 104 103 100 97 93 89 89 89 92 92 91 87 82 76 71 67 60
312 266 180 153 167 174 217 203 224 225 222 225 203 139 106 91 109 155 134 134 89 342 133 116 110 105 108 119 130 143 149 148 148 148 150 150 150 149 150 146 143 142 145 146 147 150 145 137 138 142 139 143 142 144 149 147 143 143 137 130 125 126 127 131 128 122 116 114 111 110 110 104 100 97 94 93 91 91 93 96 95 95 89 83 76 66 60
304 288 65 335 177 170 184 192 219 237 206 214 276 251 177 120 152 170 126 127 119 197 124 116 125 132 133 137 142 143 150 153 151 152 153 152 148 147 148 145 143 146 151 155 156 149 141 143 151 147 144 146 145 146 149 148 144 137 129 128 128 130 134 134 130 126 123 120 117 112 107 106 106 103 99 95 93 91 93 98 101 98 94 90 84 72 64
272 241 75 26 153 139 187 248 254 215 185 159 224 244 129 172 130 106 155 197 169 153 148 125 144 137 139 139 144 144 149 156 158 157 159 155 151 149 148 148 154 155 155 154 146 140 142 148 153 153 143 144 147 150 149 146 134 132 130 130 131 136 140 137 134 129 128 125 121 117 114 113 107 103 100 97 96 93 93 101 103 99 98 95 89 79 64
264 65 53 62 48 115 214 230 308 59 184 185 170 252 221 235 140 190 179 155 148 146 152 142 155 158 164 158 160 155 152 156 160 157 157 154 149 149 153 159 160 155 148 145 149 153 156 154 152 138 126 137 142 147 146 139 136 135 133 135 139 143 142 140 137 135 132 127 123 121 116 110 108 107 106 106 105 102 98 93 98 99 94 89 86 78 71
276 16 56 44 116 212 243 239 110 67 63 59 12 263 214 222 179 106 107 129 152 163 170 156 148 135 123 138 147 164 165 159 159 160 159 156 153 157 161 161 160 155 146 139 145 147 148 149 142 141 146 148 148 144 140 135 136 138 139 142 145 145 143 143 140 135 130 128 125 122 119 118 118 119 120 118 113 111 105 104 107 110 110 101 92 85 76
11 44 66 103 247 238 281 320 91 99 65 60 46 2 318 252 183 146 135 157 154 151 128 123 132 138 140 140 151 155 158 160 155 154 163 166 165 164 163 157 155 151 149 149 153 156 151 146 149 150 145 142 138 140 128 127 135 141 144 144 144 145 144 142 137 133 129 125 123 123 124 125 124 123 119 117 117 113 102 91 87 90 92 100 99 93 86
112 207 126 186 306 355 350 354 344 69 96 40 99 147 274 267 240 175 142 153 146 138 132 132 132 131 129 131 156 173 163 164 162 163 166 161 156 153 154 152 152 155 154 149 144 143 148 151 153 152 143 139 136 130 133 149 140 145 144 143 143 140 138 134 132 131 128 126 125 125 125 124 124 122 119 115 111 106 98 94 91 88 95 96 108 106 92
103 68 53 27 36 257 282 259 269 283 133 125 185 91 307 305 351 222 145 149 147 134 136 136 138 131 120 143 182 186 173 164 156 152 141 142 145 149 145 145 149 150 146 141 143 147 146 143 137 136 133 127 131 137 145 137 134 127 132 137 137 136 135 132 131 131 129 127 127 126 125 127 128 126 122 117 116 112 109 106 99 101 97 89 91 113 115
76 85 81 215 142 244 210 246 251 279 43 107 101 67 290 279 14 10 139 150 143 142 143 147 141 131 145 184 188 183 169 154 150 146 148 147 150 153 151 150 149 148 146 142 140 139 135 130 136 133 131 133 136 141 140 134 124 124 145 138 138 136 135 133 129 126 125 123 125 126 127 130 130 131 134 134 128 118 118 115 118 116 110 111 114 114 137
142 134 151 286 196 196 273 232 178 180 79 70 74 161 262 283 343 334 42 141 153 149 151 155 155 152 168 183 197 178 157 149 150 149 151 150 153 154 150 149 148 147 142 139 143 144 139 135 135 132 132 132 133 133 135 135 133 135 155 152 132 125 121 121 119 117 118 120 123 126 129 126 126 132 133 123 126 127 129 131 132 132 131 128 126 139 138
278 157 254 78 309 283 288 190 175 122 89 77 119 196 236 281 317 345 13 126 168 159 156 159 162 192 177 184 153 137 137 139 146 145 145 148 149 149 150 151 148 145 150 151 148 145 139 138 136 133 132 132 136 140 142 142 143 142 142 128 119 115 117 116 117 116 117 123 125 126 130 132 130 124 126 128 125 126 132 135 135 137 141 146 144 153 137
202 209 146 210 210 242 240 317 103 113 65 60 214 231 216 266 341 346 10 11 174 158 181 173 178 189 160 119 128 138 148 147 145 141 141 141 145 147 147 147 148 144 144 141 137 136 139 140 139 138 138 141 146 150 151 146 139 128 125 124 121 120 119 121 121 122 124 126 127 132 133 125 126 131 131 119 122 126 126 131 140 151 157 158 155 151 140
37 49 271 334 170 279 231 72 23 49 112 226 216 257 310 20 1 28 357 12 339 167 174 190 178 106 128 135 141 145 141 140 145 148 148 150 151 152 150 152 151 146 145 147 146 143 142 142 143 144 147 149 150 144 136 137 131 125 124 126 126 126 126 126 128 130 133 133 135 133 131 130 128 124 119 121 125 127 134 142 149 158 164 163 153 151 141
152 172 196 196 213 243 20 92 169 221 164 198 184 36 3 352 23 16 8 351 338 192 167 173 135 131 121 117 124 127 134 136 138 141 143 142 142 145 150 149 150 150 147 148 147 149 149 150 152 155 154 145 140 134 136 138 128 127 127 131 131 132 133 132 132 135 136 137 134 135 137 133 124 119 120 125 130 138 151 153 163 169 179 167 147 147 157
156 196 205 252 284 84 47 80 111 121 168 75 58 76 60 43 359 357 20 350 332 168 136 115 126 131 137 143 148 144 149 145 146 149 153 152 149 150 153 154 152 154 151 150 151 151 152 154 155 150 143 139 137 136 143 137 136 136 138 139 138 139 139 137 138 138 133 135 138 137 141 134 130 131 133 139 145 163 155 159 161 168 174 151 142 144 143
21 73 148 123 35 354 32 47 63 69 42 27 44 49 36 33 58 52 40 356 21 44 118 124 129 134 136 133 138 135 140 143 144 139 137 142 145 146 148 151 156 154 152 151 151 150 152 151 146 143 141 143 142 144 144 142 143 144 144 142 141 142 141 142 143 141 137 138 138 140 141 141 142 147 148 155 159 172 165 171 175 173 161 145 136 131 132
65 316 316 20 359 334 69 49 36 35 21 39 42 7 22 38 8 44 51 68 48 80 75 98 118 128 139 135 138 140 141 144 148 150 150 152 154 154 156 156 153 152 154 153 152 149 146 146 143 142 142 143 142 145 148 149 150 148 144 142 141 141 145 146 144 142 143 145 147 149 148 156 155 146 141 123 117 121 146 157 148 132 121 129 128 129 132
124 210 159 261 328 337 329 75 51 349 29 62 4 1 80 20 4 23 116 92 87 99 103 116 118 122 133 136 141 145 148 147 147 149 151 153 154 157 154 156 155 151 154 154 150 149 148 150 147 146 146 146 149 151 152 155 149 143 143 145 146 149 149 146 145 148 147 156 151 143 134 120 103 94 88 104 99 94 98 110 111 101 96 88 98 106 110
46 46 19 329 23 353 22 42 49 36 49 34 19 359 15 24 13 1 24 125 162 135 134 131 132 135 146 145 142 142 144 145 150 154 155 156 155 154 156 161 160 158 155 152 152 151 153 151 148 149 149 149 153 156 157 151 146 144 145 146 148 150 147 144 148 151 147 123 112 112 101 89 69 85 125 119 110 85 22 255 129 124 109 104 105 111 111
29 122 257 297 89 246 296 341 313 20 23 32 47 348 350 46 28 338 24 30 111 140 137 139 140 141 145 147 143 143 147 150 148 148 151 154 154 156 156 156 157 155 156 154 155 156 156 154 152 153 153 154 156 157 150 148 146 146 148 150 151 151 149 149 151 143 126 124 118 114 112 109 101 70 41 59 93 121 102 66 81 102 115 129 143 123 104
215 207 207 244 211 165 190 219 268 323 65 46 360 292 50 24 16 335 108 83 58 98 127 141 138 140 142 140 135 132 139 144 148 152 153 156 158 158 158 156 159 158 158 157 155 158 160 157 155 153 155 157 158 154 149 149 149 151 152 150 149 148 149 153 153 137 132 126 127 117 117 116 108 105 90 51 45 62 93 102 95 89 91 106 112 117 126
151 170 175 216 268 162 110 72 56 4 58 82 70 30 55 27 318 22 110 113 111 101 102 106 130 133 133 136 137 136 138 144 149 157 161 158 158 156 157 159 158 158 159 162 162 160 157 155 154 154 156 160 157 152 150 150 152 152 154 151 151 151 149 154 149 135 134 132 129 123 123 120 117 122 116 102 67 42 64 84 84 95 103 107 109 119 137
144 327 142 225 185 141 324 80 58 20 339 104 82 62 41 1 357 68 84 96 107 125 128 127 123 130 131 131 134 140 147 153 156 156 156 157 159 161 162 162 164 163 163 160 157 155 156 156 155 157 158 158 154 152 151 153 153 152 151 149 146 147 151 156 149 138 139 137 135 130 130 124 125 127 127 130 128 114 44 40 76 90 100 104 117 130 135
161 245 212 201 92 131 218 76 27 328 324 117 89 53 25 36 69 74 64 80 93 120 129 132 129 128 131 133 135 132 136 148 151 149 154 161 163 165 169 168 164 160 155 154 155 158 157 156 156 155 154 154 153 153 152 153 153 150 148 146 148 150 158 158 144 143 143 141 137 138 138 137 139 139 145 144 142 140 128 102 42 358 316 246 209 205 190
340 348 61 58 35 11 27 136 216 242 233 77 104 101 59 59 66 81 72 65 87 121 132 130 127 128 130 134 135 146 150 144 143 155 162 164 168 169 165 158 158 156 154 152 149 147 146 144 148 159 158 154 152 151 152 152 148 145 141 143 146 156 156 148 145 145 143 140 141 142 146 147 147 148 154 152 148 149 153 160 176 187 206 230 233 197 205
320 20 28 152 183 184 319 86 193 102 87 79 77 71 65 76 66 64 73 76 80 95 111 129 124 124 127 136 135 128 132 148 158 160 160 164 161 160 160 159 156 151 146 139 142 141 137 145 140 129 150 152 148 151 152 152 149 145 144 146 152 160 162 151 147 141 144 145 145 151 157 159 159 160 153 153 157 167 170 171 172 187 215 217 215 227 225
35 56 38 17 110 212 288 317 12 72 67 65 68 57 61 78 73 70 61 82 110 114 110 124 132 134 139 144 144 143 152 161 163 164 162 155 153 154 151 142 136 132 131 135 139 136 139 142 155 168 166 157 153 153 154 154 150 147 147 151 158 162 162 157 150 146 149 151 155 164 167 165 161 158 163 167 171 168 172 180 190 195 194 195 188 218 237
56 3 98 196 274 46 316 329 92 83 97 102 86 64 86 94 86 76 73 53 65 83 110 119 113 119 132 140 150 151 156 166 167 159 152 152 152 145 137 132 128 125 123 135 150 152 152 160 174 163 162 160 154 154 156 151 149 148 149 154 161 164 161 159 151 156 156 162 171 173 170 164 165 166 171 173 174 180 183 189 189 181 186 197 195 189 201
108 181 62 1 342 3 39 101 82 63 67 75 78 72 71 87 97 92 92 93 77 74 67 105 125 127 130 140 145 142 140 142 149 153 152 154 153 149 146 147 149 156 152 149 149 164 171 182 174 158 160 156 155 156 156 151 148 145 148 154 162 163 161 154 154 157 154 159 167 167 170 161 164 169 174 179 178 188 191 191 181 188 194 185 191 204 215
190 58 38 16 18 60 47 39 61 51 40 41 70 78 116 116 109 108 102 94 103 98 92 102 126 132 125 122 129 135 135 136 139 144 148 141 142 146 147 148 140 137 145 155 167 175 181 164 146 154 153 155 158 160 157 153 147 149 154 158 162 166 161 153 145 146 148 152 154 156 154 146 152 152 160 174 175 162 176 177 179 178 188 188 201 218 209
44 39 23 17 24 22 28 43 66 49 42 49 49 53 60 82 94 91 101 105 92 88 89 89 97 119 130 128 126 127 126 120 123 132 137 135 144 146 143 143 143 147 156 167 174 169 154 143 151 164 156 153 155 157 152 146 145 148 151 155 161 152 150 150 139 141 142 144 150 156 149 142 158 155 168 171 184 158 169 170 181 176 175 192 204 218 194
90 104 89 58 80 57 23 43 54 61 42 40 51 53 49 61 86 93 100 105 104 101 103 105 107 115 125 129 129 128 128 126 129 137 136 132 134 138 137 131 142 147 155 151 145 136 129 140 150 155 147 145 147 151 145 137 141 145 149 152 149 149 152 149 143 144 144 146 151 154 160 142 149 173 160 168 180 179 166 181 185 194 201 206 202 196 198
98 77 76 65 59 63 58 51 49 45 39 39 44 58 58 57 73 80 75 79 92 109 113 110 111 119 124 127 132 139 145 148 145 138 136 130 126 123 122 123 125 127 121 95 92 105 114 121 139 141 139 138 142 135 133 132 139 142 148 151 153 157 154 144 145 152 153 157 151 156 175 178 177 178 177 164 174 177 188 182 183 188 188 204 238 176 188
79 76 60 51 56 73 66 59 61 65 57 52 58 67 60 46 49 58 78 95 103 100 100 105 108 113 122 132 137 145 139 133 129 127 126 123 117 110 103 98 102 101 94 78 67 100 117 103 59 96 120 126 123 124 134 134 139 141 148 144 146 145 145 140 147 150 156 151 156 166 176 193 189 170 189 180 181 189 186 184 176 182 184 198 179 172 175
63 81 79 68 58 63 67 63 61 60 51 48 65 73 74 63 60 60 66 76 87 98 102 104 109 115 115 110 110 109 118 126 125 122 123 120 119 114 112 110 110 108 102 91 101 112 104 110 125 95 83 84 88 121 136 122 127 140 144 149 145 150 162 145 147 155 163 164 166 169 180 187 195 188 174 174 182 191 190 192 191 189 186 196 178 169 177
66 60 70 85 85 79 84 82 83 82 79 64 57 63 76 82 72 73 69 69 79 91 92 95 102 101 99 98 107 119 119 120 124 126 129 126 124 121 123 127 130 131 121 124 123 123 128 130 118 115 135 151 167 161 169 134 141 146 153 158 154 150 161 157 147 145 165 164 169 171 168 176 184 181 178 169 175 177 182 184 192 201 207 209 209 184 183
77 74 77 75 92 97 89 87 82 74 78 89 76 64 65 77 79 79 76 86 96 101 100 100 106 110 118 120 117 118 125 135 134 131 128 124 123 123 129 131 132 128 132 128 114 121 103 124 139 141 163 181 166 161 127 130 150 152 153 153 155 163 173 174 177 174 167 163 158 174 178 178 175 171 178 191 193 198 200 202 193 195 204 212 212 210 196
123 119 120 105 92 92 94 89 79 83 86 92 103 107 96 85 83 91 96 93 102 117 123 127 125 124 125 126 127 128 135 135 131 126 123 119 114 108 98 87 105 113 106 94 103 126 164 186 160 152 167 172 151 138 138 148 133 155 151 163 169 173 181 184 181 183 191 166 167 165 174 175 180 178 183 190 196 207 221 227 222 212 205 206 202 207 195
115 126 108 93 101 102 102 101 97 92 101 114 113 112 109 107 103 100 107 111 112 117 125 129 125 126 134 137 134 134 133 134 133 132 129 125 124 125 124 134 148 137 126 139 167 164 184 191 152 141 140 150 141 180 158 171 151 145 157 169 169 179 178 182 184 191 194 196 194 180 181 178 181 184 190 189 200 204 209 213 220 223 216 212 216 212 208
71 71 90 98 109 112 111 113 115 104 85 83 92 101 108 111 112 113 110 106 108 114 110 111 125 135 137 135 133 134 133 136 133 136 139 140 141 139 139 155 162 133 117 107 133 149 172 182 158 112 103 115 137 203 190 149 187 182 144 166 180 179 180 184 187 195 202 199 199 205 192 175 178 192 194 197 198 202 206 214 220 224 224 220 219 220 222
117 111 99 97 103 114 125 129 122 118 112 100 100 102 109 116 119 117 113 111 112 107 108 114 111 113 123 131 136 135 133 131 132 128 111 92 132 149 148 149 161 149 130 122 128 127 138 155 156 118 100 105 108 221 233 189 183 202 213 162 178 174 186 183 189 197 197 192 193 196 196 190 177 182 194 199 203 206 206 203 202 204 202 205 215 221 226
97 101 102 105 102 113 115 118 124 127 122 123 123 119 118 123 134 135 132 125 121 125 127 127 130 136 141 143 139 134 135 137 132 129 118 107 80 67 121 138 158 144 133 125 120 137 139 157 158 180 180 190 207 216 217 203 197 194 214 208 196 197 175 183 189 179 182 193 190 182 184 191 194 189 184 195 203 207 207 212 221 227 234 232 227 222 223
102 115 123 117 119 126 116 110 110 120 133 137 129 123 120 117 111 114 125 124 126 130 131 136 141 144 149 150 147 145 144 144 143 139 130 128 130 162 172 151 146 150 149 142 140 153 168 168 189 202 200 209 215 211 206 198 182 198 203 218 207 224 218 198 191 198 191 180 186 192 185 188 195 195 192 193 194 199 205 209 215 217 216 225 227 234 239
116 106 109 120 103 88 99 108 104 94 89 98 109 115 119 118 109 107 117 124 132 138 143 142 146 151 155 152 146 142 139 140 146 154 155 161 164 164 161 147 143 147 155 152 150 160 180 180 197 225 209 214 214 205 206 195 184 190 206 217 224 223 215 208 198 196 197 197 196 191 188 184 187 195 196 192 196 199 208 205 214 218 212 209 207 203 208
131 120 103 103 112 112 117 126 129 118 117 113 109 112 115 116 119 119 123 130 131 132 135 144 146 149 150 153 152 150 144 133 97 67 90 94 98 119 149 146 141 146 151 155 163 172 175 183 209 235 222 208 195 199 209 197 191 192 199 217 223 238 235 218 198 178 171 172 174 178 181 179 184 189 196 199 195 197 205 204 212 220 220 223 233 240 244
120 115 110 102 106 131 145 140 139 141 141 124 126 129 138 142 129 116 122 118 121 128 138 144 148 151 148 151 150 151 151 144 121 104 119 123 126 129 139 142 152 158 158 156 156 158 163 192 227 234 225 206 196 203 187 187 184 191 199 209 216 233 244 239 230 211 191 188 177 194 219 221 204 186 173 182 204 211 211 205 214 220 214 211 223 224 218
109 103 98 107 118 133 141 154 135 125 128 136 139 146 147 128 127 137 136 130 121 117 125 136 148 154 158 160 159 160 168 173 157 154 167 152 141 139 138 139 147 153 156 155 164 172 194 205 213 224 216 198 197 198 182 178 192 196 201 200 210 217 218 215 219 209 198 205 209 208 213 215 221 225 234 230 221 209 199 203 209 207 220 226 231 237 233
121 123 140 154 177 199 186 154 143 140 149 150 146 142 135 130 127 138 141 143 141 138 136 139 143 149 153 156 165 167 168 163 122 125 148 155 155 157 162 164 170 173 174 170 186 195 221 227 232 223 208 197 198 196 206 194 180 177 189 193 194 199 205 200 195 196 202 207 208 205 205 209 214 212 211 216 226 239 242 239 235 232 223 213 215 220 224
149 159 167 172 195 209 199 179 148 124 119 123 125 136 147 150 147 147 146 145 144 146 147 151 147 153 155 169 170 168 172 167 154 156 162 176 181 183 183 179 175 179 181 180 189 202 211 217 215 208 210 205 193 196 199 205 212 216 211 216 213 206 205 223 229 235 213 198 194 198 204 210 211 217 226 229 228 228 224 221 229 243 247 238 226 225 241
167 168 173 177 192 201 169 113 107 118 120 129 133 153 133 136 142 151 155 163 161 149 153 151 158 161 163 179 176 174 172 171 169 167 178 181 186 194 199 191 179 180 180 195 204 201 202 198 185 184 190 200 207 213 210 201 192 198 219 228 218 213 227 222 200 217 230 210 184 178 178 181 167 166 190 196 199 208 220 217 217 222 233 343 14 26 39